When you browse on this site, cookies collect data to enhance your experience and personalize the content and advertising you see.
Visit our Privacy Policy to learn more. By continuing to use the site, you agree to this use of cookies and data.
  • En España
  • Lista de países
  • Para 7 días
  • Temperatura del agua
  • Mapa Satelital
  • El tiempo en el mapa
  • Informadores
  • user-avatar
    Iniciar sesión

    Tiempo cada hora Franceville

    Hoy, 19 Febrero, Martes

    Tiempo Temperatura Precipitaciones Viento Presión Humedad
    00:00 +28°C° 0.2 mm 1 mps 730 mmHg 81%
    01:00 +27°C° 0 mm 1 mps 730 mmHg 85%
    02:00 +27°C° 0.9 mm 1 mps 730 mmHg 87%
    03:00 +26°C° 0.9 mm 1 mps 730 mmHg 89%
    04:00 +26°C° 0.9 mm 1 mps 730 mmHg 90%
    05:00 +26°C° 0 mm 1 mps 730 mmHg 90%
    06:00 +26°C° 0 mm 1 mps 730 mmHg 90%
    07:00 +26°C° 0 mm 1 mps 730 mmHg 90%
    08:00 +28°C° 0 mm 1 mps 730 mmHg 78%
    09:00 +31°C° 0 mm 1 mps 731 mmHg 66%
    10:00 +34°C° 0 mm 1 mps 731 mmHg 54%
    11:00 +33°C° 0.1 mm 0 mps 731 mmHg 49%
    12:00 +35°C° 0.1 mm 0 mps 730 mmHg 45%
    13:00 +37°C° 0.1 mm 0 mps 730 mmHg 40%
    14:00 +35°C° 0.1 mm 0 mps 729 mmHg 44%
    15:00 +35°C° 0.1 mm 1 mps 728 mmHg 49%
    16:00 +34°C° 0.1 mm 1 mps 727 mmHg 54%
    17:00 +31°C° 0.8 mm 1 mps 728 mmHg 65%
    18:00 +29°C° 0.8 mm 1 mps 728 mmHg 75%
    19:00 +27°C° 0.8 mm 2 mps 728 mmHg 86%
    20:00 +27°C° 0.3 mm 1 mps 729 mmHg 87%
    21:00 +26°C° 0.3 mm 1 mps 730 mmHg 89%
    22:00 +26°C° 0.3 mm 1 mps 730 mmHg 91%
    23:00 +26°C° 0.4 mm 1 mps 730 mmHg 91%

    Mañana, 20 Febrero, Miércoles

    Tiempo Temperatura Precipitaciones Viento Presión Humedad
    00:00 +25°C° 0.4 mm 1 mps 730 mmHg 92%
    01:00 +25°C° 0.4 mm 1 mps 730 mmHg 93%
    02:00 +25°C° 0.4 mm 1 mps 730 mmHg 94%
    03:00 +24°C° 0.4 mm 1 mps 730 mmHg 94%
    04:00 +24°C° 0.4 mm 1 mps 729 mmHg 95%
    05:00 +24°C° 0 mm 1 mps 729 mmHg 94%
    06:00 +24°C° 0 mm 1 mps 729 mmHg 93%
    07:00 +25°C° 0 mm 1 mps 730 mmHg 93%
    08:00 +27°C° 0 mm 1 mps 730 mmHg 81%
    09:00 +30°C° 0 mm 1 mps 731 mmHg 69%
    10:00 +33°C° 0 mm 1 mps 731 mmHg 57%
    11:00 +34°C° 0 mm 1 mps 730 mmHg 51%
    12:00 +36°C° 0 mm 1 mps 730 mmHg 44%
    13:00 +39°C° 0 mm 1 mps 729 mmHg 38%
    14:00 +39°C° 0 mm 1 mps 729 mmHg 38%
    15:00 +37°C° 0 mm 1 mps 728 mmHg 39%
    16:00 +37°C° 0 mm 1 mps 728 mmHg 39%
    17:00 +34°C° 0 mm 1 mps 728 mmHg 48%
    18:00 +32°C° 0 mm 1 mps 729 mmHg 57%
    19:00 +30°C° 0 mm 2 mps 729 mmHg 65%
    20:00 +29°C° 1.7 mm 1 mps 730 mmHg 73%
    21:00 +27°C° 1.7 mm 1 mps 731 mmHg 81%
    22:00 +26°C° 1.7 mm 1 mps 731 mmHg 88%
    23:00 +26°C° 0 mm 1 mps 731 mmHg 89%

    Pasado mañana, 21 Febrero, Jueves

    Tiempo Temperatura Precipitaciones Viento Presión Humedad
    00:00 +26°C° 0 mm 1 mps 732 mmHg 90%
    01:00 +23°C° 0 mm 0 mps 732 mmHg 91%
    02:00 +23°C° 0.1 mm 0 mps 731 mmHg 92%
    03:00 +25°C° 0.1 mm 1 mps 731 mmHg 93%
    04:00 +25°C° 0.1 mm 1 mps 731 mmHg 94%
    05:00 +25°C° 0 mm 1 mps 731 mmHg 93%
    06:00 +25°C° 0 mm 1 mps 732 mmHg 92%
    07:00 +25°C° 0 mm 1 mps 732 mmHg 91%
    08:00 +27°C° 0 mm 1 mps 732 mmHg 83%
    09:00 +28°C° 0 mm 1 mps 733 mmHg 75%
    10:00 +30°C° 0 mm 2 mps 733 mmHg 67%
    11:00 +32°C° 0 mm 2 mps 733 mmHg 59%
    12:00 +35°C° 0 mm 2 mps 732 mmHg 51%
    13:00 +37°C° 0 mm 2 mps 731 mmHg 43%
    14:00 +35°C° 0 mm 2 mps 731 mmHg 48%
    15:00 +33°C° 0 mm 1 mps 730 mmHg 53%
    16:00 +32°C° 0 mm 1 mps 730 mmHg 58%
    17:00 +31°C° 0.7 mm 1 mps 730 mmHg 64%
    18:00 +29°C° 0.7 mm 1 mps 731 mmHg 70%
    19:00 +28°C° 0.7 mm 1 mps 731 mmHg 76%
    20:00 +27°C° 0.1 mm 1 mps 732 mmHg 78%
    21:00 +27°C° 0.1 mm 1 mps 732 mmHg 80%
    22:00 +26°C° 0.1 mm 1 mps 733 mmHg 83%
    23:00 +26°C° 0 mm 1 mps 732 mmHg 84%

    22 Febrero, Viernes

    Tiempo Temperatura Precipitaciones Viento Presión Humedad
    00:00 +26°C° 0 mm 1 mps 732 mmHg 85%
    01:00 +26°C° 0 mm 1 mps 732 mmHg 86%
    02:00 +25°C° 0 mm 1 mps 732 mmHg 87%
    03:00 +25°C° 0 mm 1 mps 731 mmHg 88%
    04:00 +25°C° 0 mm 1 mps 731 mmHg 89%
    05:00 +25°C° 0 mm 1 mps 731 mmHg 89%
    06:00 +25°C° 0 mm 1 mps 732 mmHg 89%
    07:00 +25°C° 0 mm 1 mps 732 mmHg 88%
    08:00 +26°C° 0 mm 1 mps 733 mmHg 82%
    09:00 +28°C° 0 mm 1 mps 733 mmHg 75%
    10:00 +29°C° 0 mm 2 mps 734 mmHg 68%
    11:00 +31°C° 0 mm 1 mps 733 mmHg 62%
    12:00 +32°C° 0 mm 1 mps 732 mmHg 55%
    13:00 +34°C° 0 mm 1 mps 731 mmHg 49%
    14:00 +34°C° 0 mm 1 mps 730 mmHg 49%
    15:00 +34°C° 0 mm 1 mps 730 mmHg 49%
    16:00 +34°C° 0 mm 1 mps 729 mmHg 49%
    17:00 +32°C° 0 mm 1 mps 730 mmHg 55%
    18:00 +30°C° 0 mm 1 mps 730 mmHg 62%
    19:00 +29°C° 0 mm 1 mps 730 mmHg 68%
    20:00 +28°C° 0.2 mm 1 mps 731 mmHg 74%
    21:00 +27°C° 0.2 mm 1 mps 732 mmHg 80%
    22:00 +26°C° 0.2 mm 1 mps 732 mmHg 86%
    23:00 +26°C° 0.5 mm 1 mps 732 mmHg 88%

    23 Febrero, Sábado

    Tiempo Temperatura Precipitaciones Viento Presión Humedad
    00:00 +24°C° 0.5 mm 0 mps 731 mmHg 89%
    01:00 +24°C° 0.5 mm 0 mps 731 mmHg 91%
    02:00 +24°C° 0 mm 0 mps 731 mmHg 91%
    03:00 +23°C° 0 mm 0 mps 730 mmHg 91%
    04:00 +23°C° 0 mm 0 mps 730 mmHg 91%
    05:00 +23°C° 0 mm 0 mps 730 mmHg 91%
    06:00 +23°C° 0 mm 0 mps 731 mmHg 91%
    07:00 +24°C° 0 mm 0 mps 731 mmHg 91%
    08:00 +27°C° 0 mm 1 mps 731 mmHg 85%
    09:00 +28°C° 0 mm 1 mps 732 mmHg 79%
    10:00 +30°C° 0 mm 2 mps 732 mmHg 73%
    11:00 +32°C° 0 mm 1 mps 731 mmHg 63%
    12:00 +34°C° 0 mm 1 mps 730 mmHg 53%
    13:00 +34°C° 0 mm 0 mps 729 mmHg 43%
    14:00 +34°C° 0 mm 0 mps 729 mmHg 40%
    15:00 +37°C° 0 mm 1 mps 728 mmHg 37%
    16:00 +37°C° 0 mm 1 mps 728 mmHg 34%
    17:00 +35°C° 0 mm 1 mps 728 mmHg 41%
    18:00 +33°C° 0 mm 1 mps 728 mmHg 48%
    19:00 +30°C° 0 mm 1 mps 728 mmHg 55%
    20:00 +29°C° 0 mm 1 mps 729 mmHg 58%
    21:00 +29°C° 0 mm 1 mps 729 mmHg 61%
    22:00 +28°C° 0 mm 1 mps 729 mmHg 63%
    23:00 +27°C° 0 mm 1 mps 729 mmHg 68%

    24 Febrero, Domingo

    Tiempo Temperatura Precipitaciones Viento Presión Humedad
    00:00 +27°C° 0 mm 1 mps 729 mmHg 72%
    01:00 +27°C° 0 mm 1 mps 729 mmHg 76%
    02:00 +24°C° 0.1 mm 0 mps 729 mmHg 79%
    03:00 +24°C° 0.1 mm 0 mps 728 mmHg 81%
    04:00 +24°C° 0.1 mm 0 mps 728 mmHg 83%
    05:00 +24°C° 0.2 mm 0 mps 729 mmHg 84%
    06:00 +24°C° 0.2 mm 0 mps 729 mmHg 84%
    07:00 +24°C° 0.2 mm 0 mps 730 mmHg 84%
    08:00 +27°C° 0 mm 0 mps 730 mmHg 74%
    09:00 +31°C° 0 mm 1 mps 730 mmHg 64%
    10:00 +34°C° 0 mm 1 mps 731 mmHg 54%
    11:00 +35°C° 0.6 mm 1 mps 730 mmHg 51%
    12:00 +36°C° 0.6 mm 1 mps 730 mmHg 49%
    13:00 +36°C° 0.6 mm 1 mps 729 mmHg 46%
    14:00 +35°C° 1.4 mm 1 mps 728 mmHg 56%
    15:00 +33°C° 1.4 mm 1 mps 728 mmHg 65%
    16:00 +31°C° 1.4 mm 1 mps 727 mmHg 75%
    17:00 +30°C° 0.1 mm 1 mps 728 mmHg 78%
    18:00 +29°C° 0.1 mm 1 mps 728 mmHg 82%
    19:00 +25°C° 0.1 mm 0 mps 729 mmHg 85%
    20:00 +25°C° 0 mm 0 mps 729 mmHg 85%
    21:00 +27°C° 0 mm 1 mps 730 mmHg 85%
    22:00 +27°C° 0 mm 1 mps 730 mmHg 85%
    23:00 +24°C° 0 mm 0 mps 730 mmHg 86%
    Mostrar más